Estación de Punta Cortes
Ultimos registro cada 15 minutos 29
| N° | Estación | Fecha / Hora | Temperatura | Humedad | Lluvia | Velocidad | Dirección | Radiación | Presion |
| 29 | Punta Cortes | 05-05-2026 07:00 | 9,6 | 86 | 0 | 0 | 313 | 0 | 1020,1 |
| 28 | Punta Cortes | 05-05-2026 06:45 | 9,3 | 86 | 0 | 0 | 306 | 0 | 1020 |
| 27 | Punta Cortes | 05-05-2026 06:30 | 9,4 | 85 | 0 | 0 | 328 | 0 | 1019,9 |
| 26 | Punta Cortes | 05-05-2026 06:15 | 9,4 | 85 | 0 | 0 | 327 | 0 | 1019,7 |
| 25 | Punta Cortes | 05-05-2026 06:00 | 9,6 | 85 | 0 | 0 | 323 | 0 | 1019,4 |
| 24 | Punta Cortes | 05-05-2026 05:45 | 9,7 | 83 | 0 | 0 | 323 | 0 | 1019,2 |
| 23 | Punta Cortes | 05-05-2026 05:30 | 9,6 | 84 | 0 | 0,4 | 342 | 0 | 1018,7 |
| 22 | Punta Cortes | 05-05-2026 05:15 | 9,5 | 86 | 0 | 0 | 146 | 0 | 1018,6 |
| 21 | Punta Cortes | 05-05-2026 05:00 | 9,6 | 84 | 0 | 0 | 86 | 0 | 1018,2 |
| 20 | Punta Cortes | 05-05-2026 04:45 | 9,7 | 82 | 0 | 0 | 86 | 0 | 1018 |
| 19 | Punta Cortes | 05-05-2026 04:30 | 9,7 | 83 | 0 | 0 | 149 | 0 | 1017,9 |
| 18 | Punta Cortes | 05-05-2026 04:15 | 9,4 | 84 | 0 | 0,4 | 349 | 0 | 1017,8 |
| 17 | Punta Cortes | 05-05-2026 04:00 | 9,5 | 83 | 0 | 0 | 349 | 0 | 1017,8 |
| 16 | Punta Cortes | 05-05-2026 03:45 | 9,7 | 83 | 0 | 0,4 | 354 | 0 | 1017,6 |
| 15 | Punta Cortes | 05-05-2026 03:30 | 9,3 | 84 | 0 | 0 | 304 | 0 | 1017,6 |
| 14 | Punta Cortes | 05-05-2026 03:15 | 9,5 | 85 | 0 | 0 | 297 | 0 | 1017,8 |
| 13 | Punta Cortes | 05-05-2026 03:00 | 9,5 | 85 | 0 | 0 | 297 | 0 | 1017,5 |
| 12 | Punta Cortes | 05-05-2026 02:45 | 9,6 | 84 | 0 | 0 | 316 | 0 | 1017,8 |
| 11 | Punta Cortes | 05-05-2026 02:30 | 9,6 | 84 | 0 | 0 | 306 | 0 | 1018,3 |
| 10 | Punta Cortes | 05-05-2026 02:15 | 9,4 | 84 | 0 | 0 | 180 | 0 | 1018,3 |
| 9 | Punta Cortes | 05-05-2026 02:00 | 9,6 | 83 | 0 | 0 | 185 | 0 | 1018,6 |
| 8 | Punta Cortes | 05-05-2026 01:45 | 9,6 | 82 | 0 | 0 | 85 | 0 | 1018,6 |
| 7 | Punta Cortes | 05-05-2026 01:30 | 9,7 | 81 | 0 | 0 | 77 | 0 | 1018,8 |
| 6 | Punta Cortes | 05-05-2026 01:15 | 9,6 | 82 | 0 | 0,9 | 65 | 0 | 1018,8 |
| 5 | Punta Cortes | 05-05-2026 01:00 | 9,8 | 81 | 0 | 0,4 | 359 | 0 | 1018,9 |
| 4 | Punta Cortes | 05-05-2026 00:45 | 9,9 | 82 | 0 | 0,9 | 15 | 0 | 1018,8 |
| 3 | Punta Cortes | 05-05-2026 00:30 | 9,3 | 84 | 0 | 0 | 333 | 0 | 1018,9 |
| 2 | Punta Cortes | 05-05-2026 00:15 | 8,9 | 85 | 0 | 0 | 309 | 0 | 1019,2 |
| 1 | Punta Cortes | 05-05-2026 00:00 | 8,7 | 84 | 0 | 0 | 69 | 0 | 1019,1 |